Find Starlink 6259

NORAD ID: 57089 Int'l Des: 2023-088 Owner: SPXS Country: US Constellation: starlink operational
LEOCIRCULAR

Live Position

Loading 3D Globe...

About Starlink 6259

Description loading...

Upcoming Passes

Passes for default location (London). Set your location on the main map for personalized predictions.

Altitude History

Loading altitude history...

Two-Line Element Set

1 57089U 23088AT 26110.60228944 -.00000093 00000-0 62019-5 0 9991
2 57089 43.0025 219.1290 0001081 278.5285 81.5444 15.26743990156910
Epoch: Apr 20, 2026 • Age: 7 hours

Current Status

Altitude 491.7 km
Velocity 7.62 km/s
Sub-Earth Point -26.03°S, 105.58°W
Launch Date Jun 22, 2023
Age 2.8 years
Type internet

Technical Details

Classification Payload
Mass 305.00 kg
Dry Mass 290.00 kg
Total Mass 305.00 kg
Length 0.20 m
Diameter 2.80 m
Span 9.00 m
Shape Box + pan
Manufacturer SPXS
Bus Type Starlink
Phase Status In Orbit
Owner/State SPXS/US

Most Searched